This is the latest recevied weather packets stored in our database for station/object RN1M-13. If no packets are shown the sender has not sent any weather packets the latest 10 day(s).
| Time | Temp. | Humidity | Pressure | Rain* | Wind** | Luminosity | Snow |
|---|---|---|---|---|---|---|---|
| 1777756616 | 14.44° C | 100% | 1007.2 hPa | - | - | - | - |
| 1777755715 | 14.44° C | 100% | 1007.3 hPa | - | - | - | - |
| 1777754815 | 14.44° C | 100% | 1007.3 hPa | - | - | - | - |
| 1777753958 | 13.33° C | 100% | 1007.5 hPa | - | - | - | - |
| 1777753915 | 13.33° C | 100% | 1007.5 hPa | - | - | - | - |
| 1777753015 | 13.33° C | 100% | 1007.5 hPa | - | - | - | - |
| 1777752117 | 13.33° C | 100% | 1007.7 hPa | - | - | - | - |
| 1777751224 | 13.89° C | 98% | 1007.7 hPa | - | - | - | - |
| 1777750324 | 13.89° C | 96% | 1007.6 hPa | - | - | - | - |
| 1777749424 | 13.33° C | 96% | 1007.5 hPa | - | - | - | - |
| 1777748524 | 13.33° C | 100% | 1007.7 hPa | - | - | - | - |
| 1777747624 | 13.33° C | 100% | 1007.7 hPa | - | - | - | - |
| 1777746724 | 12.78° C | 100% | 1007.6 hPa | - | - | - | - |
| 1777745824 | 13.33° C | 100% | 1007.7 hPa | - | - | - | - |
| 1777744924 | 13.89° C | 100% | 1007.7 hPa | - | - | - | - |
| 1777744023 | 13.33° C | 100% | 1007.6 hPa | - | - | - | - |
| 1777743123 | 13.89° C | 96% | 1007.7 hPa | - | - | - | - |
| 1777742223 | 14.44° C | 99% | 1007.5 hPa | - | - | - | - |
| 1777741325 | 14.44° C | 100% | 1007.6 hPa | - | - | - | - |
| 1777740432 | 14.44° C | 94% | 1007.6 hPa | - | - | - | - |
| 1777739532 | 15.56° C | 88% | 1007.5 hPa | - | - | - | - |
| 1777738632 | 16.11° C | 84% | 1007.5 hPa | - | - | - | - |
| 1777737732 | 16.11° C | 95% | 1007.8 hPa | - | - | - | - |
| 1777736832 | 15° C | 100% | 1008 hPa | - | - | - | - |
| 1777735932 | 15.56° C | 95% | 1008.1 hPa | - | - | - | - |
* Rain since midnight (hover to see other rain measurements)
** Current wind speed in m/s (hover to see current wind gust speed)